Location: Unspecified
(45.3712°N, 0.6436°E)
Time: 06:17:46
(UTC+02:00)

ISS - Pass Details

Date: 17 July 2018
Orbit: 402 x 408 km, 51.6° (Epoch: 23 July)

Event Time Altitude Azimuth Distance (km) Brightness Sun altitude
Rises 04:48:29 0° 298° (WNW) 2,333 -0.1 -13.6°
Reaches altitude 10° 04:50:41 10° 307° (NW) 1,472 -1.0 -13.3°
Maximum altitude 04:53:46 36° 16° (NNE) 671 -2.1 -13.0°
Drops below altitude 10° 04:56:51 10° 85° (E) 1,471 -0.3 -12.6°
Sets 04:59:02 0° 94° (E) 2,331 0.6 -12.4°
